Location: Arthez
(43.0833°N, 0.2500°W)
Time: 00:41:14
(UTC+00:00)

NOSS 3-1 (A) - Pass Details

Date: 07 June 2022
Orbit: 711 x 1501 km, 63.4° (Epoch: 21 May)

Event Time Altitude Azimuth Distance (km) Brightness Sun altitude
Rises 23:54:34 0° 307° (NW) 4,167 7.3 -24.2°
Reaches altitude 10° 23:58:41 10° 286° (WNW) 3,342 6.5 -24.2°
Maximum altitude 00:02:56 15° 255° (WSW) 3,074 5.9 -24.2°
Enters shadow 00:05:04 14° 239° (WSW) 3,217 5.9 -24.2°
